ATLAS 5 CENTAUR DEB, 43984

Orbit data source: Space-Track

ATLAS 5 CENTAUR DEB, 43984 is space debris in HEO originally from a launch on Wed, 17 Sep 2014 UTC launched from the Air Force Eastern Test Range (AFETR). Debris objects in space refer to the collection of defunct objects orbiting the Earth. Examples of debris include non-operational satellites, rocket bodies, and fragments generated from explosions, collisions, or faulty payload assembly.

Loading next visibility...
Identifier
43984, 2014-055AP
Orbit
HEO
Country
Flag of USUS
Related business
Flag of USUnited Launch Alliance/Lockheed Martin (US)
Manufacturer
Unknown
Mission
Spacecraft
Bus & Motor
Unknown
Mass
Unknown
Launch date (UTC)
2014-09-17 (11 years ago)
Launch vehicle
Unknown
Launch site
Air Force Eastern Test Range (AFETR)
Object type
Payload
Rocket body
Debris
Shape & HBR
Unknown shape, 1.1 m
Radar Cross Section
Small (<0.1 m²)

Expand to show TLE details & history
Last TLE update: 2 days ago

TLE from 2 days ago
0 ATLAS 5 CENTAUR DEB
1 43984U 14055AP  25348.91404916  .00000050  00000-0  00000-0 0  9994
2 43984  20.9475 112.8384 5104944 218.5153  90.8570  1.91689001 50892
Epoch: 2025-12-14T21:56Z
TLE epoch observation values (Epoch: 2025-12-14T21:56:13.847Z)
Latitude
0.00002°
Longitude
59.88728°
Altitude
27,329.61 km
Speed
3.015 km/s
True Right ascension
07h 31m 03s
True Declination
0° 00' 00"
Sunlit
Object was in daylight at epoch
Visualization orbit readout
Latitude
Unknown
Longitude
Unknown
Altitude
Unknown
Speed
Unknown
Apparent Right ascension
Unknown
Apparent Declination
Unknown
Sunlit
N/A
Visualization observer readout
Local Sidereal Time
08:42:07
Azimuth
Unknown
Elevation
Unknown
Doppler factor
Unknown
Orbital elements
Apogee altitude
34,973.136 km
Perigee altitude
7,022.561 km
Semi-major axis
27,375.986 km
Eccentricity
0.51049
Inclination
20.9475°
RAAN
112.8384°
Arg. of periapsis
218.5153°
True anomaly
141.49098°
Mean anomaly
90.857°
Eccentric anomaly
116.93358°
Mean motion
0.47917 °/min
Orbital period
751.3 mins
BSTAR
0
Loading maneuver chart data...
Computing Atmospheric mass density...

Documentation

Showing up to 5 results
|